Regional Weather Roundup
Issued by NWS

Home | Current Version | Previous Version | Graphics & Text | Print | Product List | Glossary On
Versions: 1 2 3 4 5 6 7 8 9 10 11 12 13 14 15 16 17 18 19 20 21 22 23 24 25 26 27 28 29 30 31 32 33 34 35 36 37 38 39 40 41 42 43 44 45 46 47 48 49 50
000
ASUS45 KBOU 281407
RWRCO

WEATHER ROUNDUP FOR COLORADO
NATIONAL WEATHER SERVICE DENVER/BOULDER CO
800 AM MDT THU AUG 28 2014

NOTE: "FAIR" INDICATES FEW OR NO CLOUDS BELOW 12000 FEET WITH NO
SIGNIFICANT WEATHER AND/OR OBSTRUCTIONS TO VISIBILITY.

COZ001>005-013-030-031-281500-
...NORTHWEST COLORADO...

CITY           SKY/WX    TMP DP  RH WIND       PRES   REMARKS
CRAIG          CLOUDY    53  50  89 NW3       30.30R
HAYDEN         CLOUDY    50  46  87 W5        30.30R
MEEKER         CLOUDY    52  49  89 CALM      30.31R
MOUNT WERNER   NOT AVBL
STEAMBOAT SPGS CLOUDY    48  48  99 SW3       30.30S
WALDEN         CLOUDY    46  43  87 CALM      30.32R
$$

COZ006>008-011-281500-
...WEST CENTRAL VALLEYS...

CITY           SKY/WX    TMP DP  RH WIND       PRES   REMARKS
GRAND JUNCTION CLOUDY    57  55  93 E3        30.25R
MONTROSE       CLOUDY    55  52  89 SE3       30.32R
EAGLE          PTSUNNY   54  50  87 CALM      30.31F
RIFLE          LGT RAIN  55  53  93 NW6       30.28R
DELTA          RAIN      57  54  89 CALM      30.29R
NUCLA          NOT AVBL
$$

COZ017>023-064>068-281500-
...SOUTHWEST COLORADO...

CITY           SKY/WX    TMP DP  RH WIND       PRES   REMARKS
DURANGO        MOSUNNY   47  43  86 NE5       30.30R
CORTEZ         MOSUNNY   51  48  89 E5        30.32R
PAGOSA SPRINGS MOSUNNY   47  40  76 CALM      30.34F
TELLURIDE      NOT AVBL
WOLF CREEK PAS MOSUNNY   32  32 100 CALM      30.52R
$$

COZ009-010-012-014-032>034-037-058>063-281500-
...CENTRAL COLORADO...

CITY           SKY/WX    TMP DP  RH WIND       PRES   REMARKS
ASPEN          CLOUDY    48  46  93 N5        30.35R FOG
BUENA VISTA    PTSUNNY   49  40  70 CALM      30.32R
COPPER MTN     SNOW      37  36  93 W15G22    30.49S VSB<1/4
BERTHOUD PASS  SNOW      32  30  93 NW18      30.49S VSB<1/4 WCI  20
COTTONWOOD PAS MOSUNNY   48  36  61 NW8G17    30.39S
GUNNISON       CLOUDY    48  43  81 CALM      30.36S
KREMMLING      CLOUDY    50  45  81 E3        30.32S
LEADVILLE      CLOUDY    41  39  93 NW5       30.39S
MONARCH PASS   FOG       34  34 100 W24       30.58S VSB<1/4 WCI  21
SALIDA         MOSUNNY   55  41  60 SW6       30.35F
SUNLIGHT       FOG       41  41 100 CALM      30.48S VSB<1/4
WILKERSON PASS NOT AVBL
$$

COZ069>075-281500-
...SAN LUIS VALLEY/SANGRE DE CRISTO MOUNTAINS...

CITY           SKY/WX    TMP DP  RH WIND       PRES   REMARKS
ALAMOSA        MOSUNNY   45  39  79 CALM      30.31R
LA VETA PASS   NOT AVBL
SAGUACHE       NOT AVBL
$$

COZ035-036-038>040-281500-
...NORTHERN COLORADO FRONT RANGE...

CITY           SKY/WX    TMP DP  RH WIND       PRES   REMARKS
DENVER INTL AP MOSUNNY   57  50  77 S13       30.14S
DMNS CITY PARK   N/A     58  46  66 S8        30.14S
AURORA         MOSUNNY   55  50  82 SW8       30.16S
FRONT RANGE AP NOT AVBL
ERIE MUNI ARPT MOSUNNY   57  51  80 CALM      30.13R
BOULDER MUN AP MOSUNNY   55  52  88 N5        30.13R
CENTENNIAL     MOSUNNY   57  47  69 S3        30.17R
BROOMFIELD     PTSUNNY   57  48  72 CALM      30.15R
FORT COLLINS   SUNNY     55  52  88 N5        30.14S
LONGMONT       SUNNY     59  54  83 CALM      30.14S
$$

COZ041-046-047-076>085-087-088-281500-
...PIKES PEAK/PALMER DIVIDE AND SOUTHERN FOOTHILLS...

CITY           SKY/WX    TMP DP  RH WIND       PRES   REMARKS
COLO. SPRINGS  PTSUNNY   60  46  59 NW5       30.20F
A. F. ACADEMY  MOSUNNY   55  44  66 NE6       30.21S
ELLICOTT       MOSUNNY   55  50  83 N5        30.19R
FALCON         PTSUNNY   54  46  73 CALM      30.23S
FORT CARSON    MOSUNNY   58  47  66 NE3       30.18S
LIMON          SUNNY     58  53  84 W8        30.14S
MONUMENT HILL  MOSUNNY   52  46  82 S5        30.21F
TRINIDAD       SUNNY     57  42  57 W9        30.18S
$$

COZ042>045-048>051-090-091-281500-
...NORTHEAST COLORADO...

CITY           SKY/WX    TMP DP  RH WIND       PRES   REMARKS
GREELEY ARPT   SUNNY     57  48  72 CALM      30.13R
AKRON          SUNNY     58  52  80 W13       30.10R
BURLINGTON     MOSUNNY   60  56  86 NW8       30.07S
WRAY             N/A     63  62  96 W8        30.04R
STERLING       MOSUNNY   64  54  68 NW12      30.06S
HOLYOKE        SUNNY     64  61  88 NW7       30.04R
FORT MORGAN    SUNNY     58  52  80 W9        30.11R
$$

COZ086-089-092>099-281500-
...SOUTHEAST COLORADO...

CITY           SKY/WX    TMP DP  RH WIND       PRES   REMARKS
PUEBLO         MOSUNNY   62  51  67 SW3       30.13S
LA JUNTA       SUNNY     62  54  74 W8        30.10R
LAMAR          SUNNY     64  57  78 NW8       30.05R
SPRINGFIELD      N/A     64  56  75 NW14      30.08S
$$


USA.gov is the U.S. government's official web portal to all federal, state and local government web resources and services.